Farmington, MO

1:10 AM CST on November 15, 2019 (GMT -0600)
Farmington Regional

Weather History for KFAM - June, 2019

Change the Weather History Date:

Monday, June 3, 2019

  Actual Average Record
Temperature  
Mean Temperature 66 °F -  
Max Temperature 79 °F 76 °F 91 °F (2011)
Min Temperature 53 °F 57 °F 51 °F (2001)
Growing Degree Days 16 (Base 50)    
Moisture  
Dew Point 56 °F    
Average Humidity 68    
Maximum Humidity 97    
Minimum Humidity 48    
Precipitation  
Precipitation 0.00 in - - ()
Sea Level Pressure  
Sea Level Pressure 30.07 in    
Wind  
Wind Speed 4 mph (ESE)    
Max Wind Speed 12 mph    
Max Gust Speed -    
Visibility 10 miles    
Events      
Averages and records for this station are not official NWS values.
T = Trace of Precipitation, MM = Missing Value Source: NWS Daily Summary

Daily Weather History Graph

Daily Weather History Graph

Search for Another Location

Airport or City:

Astronomy

Jun. 03, 2019 Rise Set
Actual Time 5:40 AM CDT 8:19 PM CDT
Civil Twilight 5:10 AM CDT 8:49 PM CDT
Nautical Twilight 4:31 AM CDT 9:28 PM CDT
Astronomical Twilight 3:48 AM CDT 10:11 PM CDT
Moon 6:00 AM CDT (6/3) 8:44 PM CDT (6/3)
Length of Visible Light 15h 39m
Length of Day
14h 38m
New Moon, 0% of the Moon is Illuminated
Jun 3
New Moon
Jun 10
First Quarter
Jun 17
Full
Jun 25
Last Quarter
Jul 2
New

Hourly Weather History & Observations

Time (CDT) Temp. Dew Point Humidity Pressure Visibility Wind Dir Wind Speed Gust Speed Precip Events Conditions
12:56 AM 57.9 °F 55.9 °F 93% 30.02 in 10.0 mi Calm Calm - N/A   Clear
1:56 AM 59.0 °F 53.1 °F 81% 30.02 in 10.0 mi North 3.5 mph - N/A   Clear
2:56 AM 59.0 °F 53.1 °F 81% 30.04 in 10.0 mi NE 3.5 mph - N/A   Clear
3:56 AM 57.9 °F 50.0 °F 75% 30.05 in 10.0 mi Calm Calm - N/A   Clear
4:56 AM 54.0 °F 50.0 °F 86% 30.06 in 10.0 mi Calm Calm - N/A   Clear
5:56 AM 53.1 °F 52.0 °F 96% 30.08 in 10.0 mi Calm Calm - N/A   Clear
6:56 AM 54.0 °F 53.1 °F 97% 30.09 in 10.0 mi Calm Calm - N/A   Clear
7:56 AM 60.1 °F 53.1 °F 78% 30.10 in 10.0 mi Calm Calm - N/A   Clear
8:56 AM 64.0 °F 55.9 °F 75% 30.11 in 10.0 mi South 4.6 mph - N/A   Clear
9:56 AM 69.1 °F 55.0 °F 61% 30.11 in 10.0 mi SE 8.1 mph - N/A   Clear
10:56 AM 72.0 °F 55.9 °F 57% 30.11 in 10.0 mi East 9.2 mph - N/A   Clear
11:56 AM 73.9 °F 55.9 °F 53% 30.12 in 10.0 mi ESE 6.9 mph - N/A   Clear
12:56 PM 75.9 °F 57.9 °F 54% 30.10 in 10.0 mi ESE 8.1 mph - N/A   Clear
1:56 PM 78.1 °F 57.0 °F 48% 30.08 in 10.0 mi East 10.4 mph - N/A   Clear
2:56 PM 78.1 °F 57.9 °F 50% 30.06 in 10.0 mi Variable 5.8 mph - N/A   Clear
3:56 PM 78.1 °F 57.0 °F 48% 30.05 in 10.0 mi South 11.5 mph - N/A   Clear
4:56 PM 77.0 °F 57.9 °F 52% 30.04 in 10.0 mi ESE 8.1 mph - N/A   Clear
5:56 PM 75.9 °F 60.1 °F 58% 30.04 in 10.0 mi ESE 5.8 mph - N/A   Clear
6:56 PM 73.9 °F 60.1 °F 62% 30.05 in 10.0 mi ESE 5.8 mph - N/A   Clear
7:56 PM 71.1 °F 60.1 °F 68% 30.05 in 10.0 mi East 5.8 mph - N/A   Clear
8:56 PM 68.0 °F 59.0 °F 73% 30.04 in 10.0 mi ESE 5.8 mph - N/A   Clear
9:56 PM 68.0 °F 55.0 °F 63% 30.04 in 10.0 mi ESE 6.9 mph - N/A   Clear
10:56 PM 66.9 °F 55.0 °F 66% 30.06 in 10.0 mi ESE 4.6 mph - N/A   Clear
11:56 PM 66.9 °F 54.0 °F 63% 30.05 in 10.0 mi SE 6.9 mph - N/A   Clear